RH
14 26 40 48 53 52 45 50 55 58 60 43 34 26 18 10 5 2 2 2 2 2 2 2 1 1 1 1 1 1 1 1 1 1 1 1 1 1 1 1 1 1 1 1 1 1 1 1 1 1 1 1 1 1 1 1 2 2 2 2 2 2 1 8 24 42 63 84 94 97 96 91 86 80 70 63 56 51 50 51 53 56 58 61 63 66 70 77 83 87 90 90 92 94 93 94 95 95 95 95 95 96 96
6 14 27 40 48 50 42 42 45 47 42 35 28 22 16 10 5 2 2 2 2 2 2 2 1 1 1 1 1 1 1 1 1 1 1 1 1 1 1 1 1 1 1 1 1 1 1 1 1 1 1 1 1 1 1 2 2 2 2 2 2 2 1 4 16 34 53 76 90 97 98 98 97 95 92 88 83 77 68 65 61 58 56 56 57 58 60 66 71 76 81 86 88 88 86 90 94 96 96 96 96 96 96
2 6 14 23 34 43 46 43 43 44 43 30 22 17 12 8 4 2 2 2 2 2 2 2 1 1 1 1 1 1 1 1 1 1 1 1 1 1 1 1 1 1 1 1 1 1 1 1 1 1 1 1 1 1 2 2 2 2 2 2 2 2 1 2 12 28 46 70 86 96 98 98 98 98 98 98 97 95 93 90 86 79 70 66 61 58 58 60 62 64 68 73 78 83 84 89 93 96 98 97 97 97 97
2 2 3 8 16 26 34 37 35 29 23 20 17 14 10 6 4 2 2 2 2 2 2 2 1 1 1 1 1 1 1 1 1 1 1 1 1 1 1 1 1 1 1 1 1 1 1 1 1 1 1 1 1 2 2 2 2 2 2 2 2 2 1 2 10 24 42 64 82 93 98 98 98 98 99 99 99 99 99 98 98 96 94 89 82 74 67 64 61 59 59 61 66 71 76 81 84 88 96 97 98 98 98
2 2 2 2 5 10 14 18 18 16 13 12 10 8 6 4 2 2 2 2 2 2 2 2 1 1 1 1 1 1 1 1 1 1 1 1 1 1 1 1 1 1 1 1 1 1 1 1 1 1 1 1 2 2 2 2 2 2 2 3 2 2 2 2 9 22 40 64 81 92 97 98 98 98 98 99 99 99 99 99 99 99 99 98 96 93 88 84 77 70 63 60 59 60 62 67 71 77 86 92 95 97 99
2 2 2 2 2 4 6 7 8 8 8 7 5 4 3 2 2 2 2 2 2 2 2 2 1 1 1 1 1 1 1 1 1 1 1 1 1 1 1 1 1 1 1 1 1 1 1 1 1 1 1 2 2 2 2 2 2 2 2 3 3 2 2 2 8 20 38 56 75 90 95 98 98 99 99 99 99 99 99 99 99 99 99 99 99 98 98 97 94 90 81 73 66 60 58 59 62 67 74 81 85 89 96
2 2 2 2 2 2 3 2 2 2 2 2 2 2 2 2 2 2 2 2 2 2 2 2 1 1 1 1 1 1 1 1 1 1 1 1 1 1 1 1 1 2 2 2 2 2 2 1 1 1 1 2 2 2 2 2 2 2 2 3 3 2 2 2 8 18 33 47 63 78 90 96 98 99 99 99 99 99 99 99 99 99 99 99 99 99 99 99 99 98 97 92 85 77 69 62 58 58 62 68 74 79 85
2 2 2 2 2 2 2 2 2 2 2 2 2 2 2 2 2 2 2 2 2 2 2 2 2 1 1 1 1 1 1 1 1 1 1 1 1 1 1 1 1 2 2 2 2 2 2 2 2 2 2 2 2 2 2 2 2 2 2 3 3 2 2 2 8 18 30 42 55 69 82 93 98 98 99 99 99 99 99 99 99 99 99 99 99 99 99 99 99 99 99 98 96 93 88 80 72 65 61 60 62 66 72
2 2 2 2 2 2 2 2 2 2 2 2 2 2 2 2 2 2 2 2 2 2 2 2 2 2 1 1 1 1 1 1 1 1 1 1 1 1 1 1 2 2 2 2 2 2 2 2 2 2 2 2 2 2 2 2 2 3 3 3 3 3 2 3 10 20 31 42 55 67 77 90 96 98 99 99 99 99 99 99 99 99 99 99 99 99 99 99 99 99 99 98 98 98 97 95 90 85 78 70 64 60 60
2 2 2 2 2 2 2 2 2 2 2 2 2 2 2 2 2 2 2 2 2 2 2 2 2 2 2 1 1 1 1 1 1 1 1 1 1 1 2 2 2 2 2 2 2 2 2 2 2 2 2 2 2 2 2 3 3 3 3 4 3 3 2 3 12 24 36 47 60 73 84 90 95 98 99 99 99 99 99 99 99 99 99 99 99 99 99 99 99 99 99 98 98 98 98 98 98 96 94 90 83 74 66
2 2 2 2 2 2 2 2 2 2 2 2 2 2 2 2 2 2 2 2 2 2 2 2 2 2 2 1 1 1 1 1 1 1 1 1 1 1 2 2 2 2 2 2 2 2 2 2 2 2 2 2 2 2 3 3 3 3 3 4 4 3 2 3 13 27 42 55 68 80 92 94 96 98 99 99 99 99 99 99 99 99 99 99 99 99 100 99 99 99 99 98 97 97 98 98 98 98 98 98 98 94 88
2 2 2 2 2 2 2 2 2 2 2 2 2 2 2 2 2 2 2 2 2 2 2 2 2 2 2 1 1 1 1 1 1 1 1 1 1 1 2 2 2 2 2 2 2 2 2 2 2 2 2 2 2 2 3 3 3 4 4 4 4 3 3 4 12 26 40 57 72 86 94 96 97 97 98 99 100 100 99 99 99 99 99 99 99 99 99 100 100 99 99 98 97 97 98 98 99 99 99 99 99 99 99
2 2 2 2 2 2 2 2 2 2 2 2 2 2 2 2 2 2 2 2 2 2 2 2 2 2 2 1 1 1 1 1 1 1 1 1 1 2 2 2 2 2 2 2 2 2 2 2 2 2 2 2 2 3 3 3 4 4 4 4 4 4 3 3 8 18 33 51 68 82 92 96 97 97 98 99 99 99 99 99 99 99 99 99 99 99 99 99 100 99 99 99 98 98 98 99 99 99 99 100 100 100 100
3 2 2 2 2 2 2 2 2 2 2 2 2 2 2 2 2 2 2 2 2 2 2 2 2 2 2 2 1 1 1 1 1 1 1 1 1 2 2 2 2 2 2 2 2 2 2 2 2 2 2 2 2 3 3 4 4 4 4 4 4 4 3 3 6 11 23 41 58 72 87 94 96 97 97 98 99 99 99 99 99 99 99 99 99 99 99 99 99 99 99 99 99 99 100 99 99 99 100 100 100 100 100
3 3 2 2 2 2 2 2 2 2 2 2 2 2 2 2 2 2 2 2 2 2 2 2 2 2 2 2 1 1 1 1 1 1 2 2 2 2 2 2 2 2 2 2 2 2 2 2 2 2 2 2 3 3 4 4 4 4 4 4 5 4 3 3 4 7 14 29 46 64 81 92 96 96 97 98 98 98 98 98 98 98 98 99 99 99 99 98 98 99 99 99 99 99 99 99 99 99 99 99 99 99 99
4 3 3 2 2 2 2 2 2 2 2 2 2 2 2 2 2 2 2 2 2 2 2 2 2 2 2 2 1 1 2 2 2 2 2 2 2 2 2 2 2 2 2 2 2 2 2 2 2 2 2 2 3 3 4 4 4 4 4 4 5 5 4 4 4 5 8 21 35 52 73 89 95 96 96 97 97 98 98 98 98 98 98 98 98 98 98 98 98 98 98 98 98 98 98 98 98 99 98 98 98 98 98
5 4 4 3 3 2 2 2 2 2 2 2 2 2 2 2 2 2 2 2 2 2 2 2 2 2 2 2 2 2 2 2 2 2 2 2 2 2 2 2 2 2 2 2 2 2 2 2 2 2 2 3 3 3 4 4 4 4 5 5 5 5 4 4 4 4 5 14 26 42 62 84 93 95 96 96 97 97 97 97 98 98 98 98 98 98 97 98 98 98 98 98 98 98 98 98 99 99 98 98 98 98 98
6 6 5 4 3 3 2 2 2 2 2 2 2 2 2 2 2 2 2 2 2 2 2 2 2 2 2 2 2 2 2 2 2 2 2 2 2 2 2 2 2 2 2 2 2 2 2 2 2 2 2 3 3 4 4 4 4 5 5 5 5 5 5 4 4 4 4 8 19 34 52 76 89 93 95 96 96 96 96 96 97 98 98 98 98 97 95 97 98 98 97 98 98 98 98 98 98 98 98 98 98 98 98
8 7 6 5 4 4 3 3 2 2 2 2 2 2 2 2 2 2 2 2 2 2 2 2 2 2 2 2 2 2 2 2 1 1 2 2 2 2 2 2 2 2 2 2 2 2 2 2 2 2 2 3 3 4 4 4 5 5 5 5 5 5 5 4 4 4 4 5 12 25 42 64 79 88 92 94 96 96 96 96 96 97 98 98 98 98 95 96 97 97 97 97 98 98 98 98 98 98 98 98 98 98 98
11 10 8 7 6 5 4 3 3 2 2 2 2 2 2 2 2 2 2 2 2 2 2 2 2 2 2 2 2 2 2 2 1 1 1 1 2 2 2 2 2 2 2 2 2 2 2 2 2 2 2 3 3 4 4 5 5 5 6 6 6 5 5 4 4 4 4 4 8 17 33 51 66 77 82 88 92 94 93 94 95 97 98 98 98 98 98 97 96 96 98 97 97 97 98 98 98 98 98 98 98 98 98
15 12 10 9 8 7 6 4 4 3 2 2 2 2 2 2 2 2 2 2 2 2 2 2 2 2 2 2 2 2 2 2 2 2 2 2 2 2 1 1 1 2 2 2 2 2 2 2 2 2 2 3 3 4 4 5 6 6 6 6 6 5 5 4 4 4 4 4 5 10 22 39 53 64 70 76 84 88 86 88 92 94 98 98 98 98 98 98 97 96 97 96 96 97 98 98 98 98 98 98 98 98 97
18 16 13 12 10 9 8 6 5 4 3 2 2 2 2 2 2 2 2 2 2 2 2 2 2 2 2 2 2 2 2 2 2 2 2 2 2 2 2 1 1 2 2 2 2 2 2 2 2 2 2 2 3 4 4 5 6 6 6 6 6 6 5 4 4 4 4 4 4 6 12 26 38 49 56 62 69 74 74 79 84 88 96 97 97 97 96 97 97 97 98 97 96 97 98 98 98 97 97 98 98 98 98
21 19 17 15 13 11 10 8 6 5 4 3 3 3 2 2 2 2 2 2 2 2 2 2 2 2 2 2 2 2 2 2 2 2 2 2 2 2 2 2 2 2 2 2 2 2 2 2 2 2 2 2 3 4 4 5 6 6 6 6 6 6 5 5 4 4 4 4 4 4 7 14 24 33 41 47 54 58 62 67 71 78 89 93 95 95 95 96 97 97 98 97 97 97 96 97 97 98 97 98 98 98 98
23 22 20 19 16 14 12 10 8 7 5 4 3 3 3 3 2 2 2 2 2 2 2 2 2 2 2 2 2 2 2 2 2 2 2 2 2 2 2 2 2 2 2 2 2 2 2 2 2 2 2 3 3 4 4 5 6 6 7 6 6 6 5 5 4 4 4 4 4 4 4 8 14 22 29 36 44 53 62 60 64 71 80 90 94 96 96 97 97 97 98 97 97 96 96 96 97 97 97 97 97 97 97
25 24 23 22 20 18 16 14 12 10 8 6 4 4 4 3 3 3 3 3 3 3 3 3 2 2 2 2 2 3 3 3 2 2 2 2 2 2 2 2 2 2 2 2 2 2 2 2 2 2 2 3 3 4 4 5 6 6 7 7 6 6 6 5 4 4 4 4 4 4 4 6 10 15 20 28 37 46 58 60 64 71 80 88 93 94 96 96 97 97 97 97 97 97 97 96 96 97 96 96 97 97 97
28 26 25 24 24 22 20 18 16 14 11 8 6 5 5 4 4 3 3 3 3 3 3 3 3 2 2 3 3 3 3 3 3 2 2 2 2 2 2 2 2 2 2 2 2 2 2 2 2 2 2 3 3 4 4 5 6 6 7 7 6 6 6 5 5 4 4 4 4 4 4 4 8 12 16 20 26 34 43 55 67 77 86 89 91 92 95 96 97 97 97 97 97 97 96 96 97 96 96 96 96 97 98
30 29 28 27 26 25 24 21 19 17 14 11 8 7 6 5 4 4 4 3 3 3 3 3 3 3 3 3 3 3 3 3 3 3 2 2 2 2 2 2 2 2 2 2 2 2 2 2 2 2 2 3 3 4 4 5 6 7 7 7 7 6 6 5 5 4 4 4 4 4 4 4 6 9 12 16 21 26 34 50 63 74 83 85 87 90 94 96 97 97 97 96 96 96 96 96 97 97 96 96 96 96 97
32 31 30 29 28 27 26 24 22 20 17 14 11 9 8 7 6 5 4 4 4 3 3 3 3 3 3 3 3 3 3 3 3 3 3 2 2 2 2 2 2 2 2 2 2 2 2 2 2 2 2 3 4 4 4 5 6 7 7 7 7 6 6 5 5 5 4 4 4 4 4 4 5 7 10 15 19 24 32 46 57 65 74 74 79 86 94 96 97 96 96 96 97 97 97 97 96 96 96 96 96 96 97
34 34 32 32 30 29 28 26 24 22 20 18 15 12 10 8 7 6 6 5 4 4 4 4 3 3 3 3 3 3 3 3 3 3 3 3 2 2 2 2 2 2 2 2 2 2 2 2 2 2 3 3 4 4 5 5 6 7 7 7 7 6 6 6 5 5 5 5 4 4 4 4 4 6 10 14 18 22 29 39 49 56 55 58 66 79 93 96 96 96 96 96 97 97 96 97 97 97 97 96 96 97 97
35 35 34 33 32 31 30 28 26 25 24 21 18 15 12 10 8 8 7 6 5 4 4 4 4 3 3 3 3 3 3 3 3 3 3 3 3 3 2 2 2 2 2 2 2 2 2 2 2 3 3 4 4 4 5 5 6 6 7 7 7 6 6 6 5 5 5 5 5 5 4 4 5 6 9 13 18 24 32 39 46 49 44 53 64 76 92 95 96 96 96 97 97 97 96 97 97 96 96 96 96 96 96
36 36 35 34 34 33 32 31 29 28 26 24 22 18 16 13 11 10 8 7 6 6 5 4 4 4 3 3 3 3 3 3 3 3 3 3 3 3 3 2 2 2 2 2 2 2 2 2 2 3 3 4 4 4 5 5 6 6 7 7 7 7 6 6 5 5 5 5 6 6 6 5 6 8 10 14 20 27 38 43 44 44 44 55 61 70 91 95 96 96 97 97 97 97 97 96 96 96 96 96 96 96 96
36 36 36 36 36 35 35 33 32 30 30 28 25 22 19 16 14 12 10 8 8 6 6 5 4 4 4 4 3 3 3 3 3 3 3 3 3 3 3 3 2 2 2 2 2 2 2 2 3 3 4 4 4 5 5 6 6 6 7 7 7 7 6 6 6 5 5 5 6 7 7 7 7 8 10 15 19 26 40 44 46 48 47 51 62 77 92 95 96 96 96 96 96 96 97 96 96 96 96 96 96 95 95
36 37 37 37 37 37 36 35 34 33 32 31 28 25 22 20 17 15 12 10 9 8 7 6 5 5 4 4 4 3 3 3 3 3 3 3 4 4 3 3 3 2 2 2 2 2 2 2 3 3 4 4 5 5 5 6 6 6 7 8 8 7 7 6 6 5 5 6 6 7 8 8 8 10 11 13 17 22 28 33 40 46 50 47 57 74 92 95 96 96 96 95 94 94 96 95 96 96 96 96 96 95 95
36 37 38 38 38 38 38 37 36 36 35 34 32 28 26 23 20 18 15 12 10 8 8 7 6 5 4 4 4 4 4 3 3 3 3 3 3 4 4 3 3 2 2 2 2 2 2 3 3 4 4 5 5 6 6 6 6 7 8 8 8 8 8 7 6 6 5 6 6 7 8 8 8 10 12 12 14 16 20 26 34 40 46 46 56 73 90 94 95 94 96 96 96 96 96 96 96 96 96 96 95 95 95
35 36 37 38 38 38 38 38 38 38 37 36 35 32 29 26 24 21 17 15 13 11 10 8 7 6 5 5 4 4 4 4 4 3 3 3 3 4 4 4 3 3 2 2 2 2 2 3 3 4 4 5 5 6 6 6 7 7 8 8 8 8 8 7 6 6 6 6 7 8 8 9 10 10 11 11 11 12 16 24 30 35 40 45 52 63 84 92 95 95 95 96 96 97 96 96 96 96 96 95 94 94 94
34 36 36 38 38 38 39 39 39 39 39 38 38 36 33 30 27 24 21 18 16 14 12 10 8 8 6 6 5 4 4 4 4 4 3 3 3 4 4 4 4 3 3 3 2 2 3 3 3 4 4 5 6 6 6 6 7 7 8 8 9 8 8 8 7 7 6 6 7 8 8 10 10 10 10 10 10 11 13 18 26 31 34 40 46 57 70 84 90 92 95 96 96 96 96 96 96 96 95 96 95 94 93
33 34 36 37 38 38 39 39 39 39 40 40 39 38 36 33 30 27 24 21 18 16 14 12 10 10 8 6 5 4 4 4 4 3 3 3 3 4 4 4 4 4 3 3 3 3 3 3 3 4 4 5 6 6 6 6 7 7 8 8 9 9 9 8 8 8 7 7 7 8 8 10 10 10 10 10 10 10 10 16 22 27 28 32 38 46 56 66 74 82 92 94 96 96 96 96 96 96 94 94 94 94 93
32 34 34 36 36 38 38 38 39 39 40 40 40 39 38 36 34 31 27 24 22 19 17 14 13 11 10 8 6 5 4 4 4 4 3 3 3 3 4 4 4 4 4 4 3 3 3 3 3 4 4 5 6 6 6 6 7 7 8 9 10 10 10 10 9 8 8 8 8 8 8 10 10 11 11 11 11 11 11 12 15 19 20 25 31 38 43 47 54 63 74 86 92 95 96 96 95 95 95 94 94 95 94
32 33 34 35 36 36 37 38 38 39 39 40 40 40 40 38 36 34 30 28 25 22 20 17 15 13 12 10 8 6 6 5 4 4 4 3 3 3 4 4 4 4 4 4 4 3 3 3 3 4 4 5 6 6 6 6 7 8 8 9 10 10 10 10 10 10 9 8 8 8 8 10 10 11 12 12 12 12 12 12 13 14 16 17 20 24 29 31 32 38 51 72 86 94 96 96 95 96 96 94 94 95 94
31 32 33 34 35 36 36 36 37 38 38 39 40 40 40 39 38 36 34 31 28 26 23 20 18 16 15 12 10 8 7 6 5 4 4 4 3 3 4 4 4 5 5 5 4 4 3 3 4 4 4 5 6 6 6 7 8 8 8 9 10 10 10 10 11 10 10 10 9 9 9 10 10 11 12 13 13 12 12 12 12 14 14 13 13 14 18 22 25 30 43 66 83 92 96 96 96 96 96 94 94 94 94
31 32 32 33 34 34 35 36 36 37 38 38 39 40 40 40 40 38 37 34 32 29 26 24 21 20 18 16 13 11 9 8 6 6 5 4 4 4 4 4 5 5 5 5 5 4 4 4 4 4 4 5 6 6 7 8 8 8 9 10 10 10 10 10 11 11 11 11 10 10 10 10 11 12 12 13 13 13 12 12 12 13 12 12 12 12 12 18 26 34 43 62 76 87 95 95 95 95 96 94 94 94 94
30 31 32 33 33 34 34 35 36 36 37 38 39 40 40 40 40 40 39 37 35 32 30 27 24 22 20 18 15 13 11 10 8 7 6 5 4 4 4 4 4 5 5 6 5 5 4 4 4 4 4 5 6 7 8 8 9 10 10 10 10 10 10 10 10 11 12 12 12 12 12 12 12 13 13 13 13 13 12 12 13 13 12 12 11 12 12 16 23 31 40 53 66 79 92 94 95 95 95 94 94 93 93
29 30 31 32 33 33 34 34 35 36 36 37 38 39 40 40 40 40 40 39 37 35 33 30 27 24 21 19 17 15 12 11 10 8 7 6 5 5 4 4 5 5 6 6 6 5 4 4 4 4 5 6 6 7 8 9 10 10 10 10 10 10 10 10 10 10 11 12 12 13 13 14 14 14 14 14 14 14 13 13 14 14 13 12 11 12 12 14 18 23 31 40 56 74 91 94 94 94 94 94 94 94 93
28 29 30 31 32 33 34 34 35 35 36 37 38 38 40 40 40 40 40 40 39 37 35 33 30 27 24 21 18 16 14 12 10 9 8 7 6 6 6 5 5 5 6 6 6 6 5 4 4 4 5 6 6 8 9 10 11 11 11 10 10 10 10 10 10 10 11 12 13 13 14 14 15 15 15 15 15 14 14 14 14 14 14 13 12 12 12 13 15 18 23 28 42 60 83 90 94 94 94 94 94 94 93
26 28 29 30 31 32 33 34 34 35 36 36 37 38 39 40 40 40 41 40 40 39 37 36 33 30 26 23 20 17 14 12 11 10 8 8 8 7 6 6 6 6 6 6 6 6 5 5 4 4 5 6 7 8 10 12 12 13 12 12 11 10 10 10 10 11 11 12 13 14 15 16 16 17 17 17 16 16 15 15 15 16 16 15 14 13 12 13 14 15 17 23 30 42 62 78 88 93 94 94 94 95 93
26 26 27 29 30 31 32 33 34 34 35 36 37 38 39 40 40 41 42 42 42 40 38 37 35 33 29 25 21 18 15 13 11 10 10 9 8 8 7 7 6 6 6 6 6 6 6 5 5 5 5 6 8 10 12 13 14 14 14 12 12 11 10 10 11 11 12 13 14 15 16 17 18 19 20 19 19 18 18 18 18 18 19 19 18 16 14 13 13 14 15 19 23 30 42 60 78 90 92 92 93 94 94
24 26 26 27 28 30 31 32 33 34 35 36 36 37 38 39 40 40 40 41 42 41 40 39 37 35 32 28 23 19 16 13 12 11 10 10 10 8 8 8 7 6 6 6 6 6 6 6 5 5 5 7 9 11 13 15 16 16 15 13 12 11 11 11 12 12 13 14 15 16 17 18 20 21 22 22 22 22 22 22 22 23 23 23 22 20 17 14 13 13 14 16 19 23 28 43 64 83 92 93 93 92 93
24 24 25 26 27 28 30 31 32 33 34 35 36 36 36 38 38 39 40 40 40 41 41 40 37 35 33 29 26 22 18 14 13 12 11 10 10 10 8 8 8 7 7 7 7 6 6 6 5 5 6 8 10 13 16 18 18 17 15 14 12 11 11 12 12 14 15 16 17 18 19 20 22 24 24 26 26 27 28 28 28 28 28 28 26 24 21 18 15 14 14 15 16 19 22 31 50 72 88 92 92 92 94
24 24 25 26 26 27 28 30 31 32 33 34 35 36 36 37 38 38 39 40 40 40 40 39 37 35 33 30 28 24 21 17 14 12 11 11 10 10 10 10 8 8 8 8 7 7 6 6 6 6 8 10 13 15 18 20 20 18 16 14 12 12 12 13 14 16 17 18 20 20 22 23 24 26 28 29 31 32 33 34 34 34 33 32 31 29 26 22 18 15 14 14 16 17 20 26 41 62 84 90 93 93 92
25 25 25 26 26 26 27 28 29 30 32 33 34 35 36 36 37 38 38 39 40 40 39 38 37 36 34 32 30 27 24 20 16 14 12 12 11 11 10 10 10 10 10 9 8 8 8 8 8 10 11 13 15 18 21 22 21 19 16 14 13 13 14 15 16 18 20 21 22 22 24 24 26 29 31 33 34 36 38 39 39 39 39 38 36 34 30 26 21 17 15 14 16 18 22 27 40 59 81 88 90 87 85
26 26 26 26 26 26 26 27 28 29 30 32 33 34 35 36 37 37 38 38 39 39 38 37 37 36 35 33 31 29 26 22 19 17 16 14 13 12 12 12 12 12 12 12 11 11 11 12 13 14 15 18 20 22 24 24 23 20 18 16 15 15 15 17 18 20 21 22 23 24 24 26 28 31 33 35 37 38 40 40 42 42 42 42 40 38 35 30 26 21 18 17 19 22 24 30 38 50 68 78 83 81 74
26 27 27 27 27 27 27 27 28 28 29 30 32 33 34 36 36 37 38 38 38 39 39 38 38 37 36 34 32 30 27 24 21 19 18 16 15 14 14 14 15 16 16 15 14 15 16 16 17 18 20 24 26 28 28 28 26 23 20 18 17 16 17 18 20 21 22 22 23 24 26 27 29 32 34 36 37 39 40 42 42 43 44 44 43 42 40 36 32 28 24 23 24 24 27 31 33 37 42 52 61 68 70
28 28 28 28 28 28 28 29 29 29 29 30 31 32 33 34 35 36 36 37 38 39 39 39 38 38 37 35 33 30 29 26 24 22 19 18 16 16 18 18 19 19 18 16 16 18 17 15 16 20 26 30 33 35 34 33 30 27 24 21 19 19 19 20 21 21 22 22 23 24 26 28 29 31 34 35 37 38 40 42 43 44 46 46 45 44 42 40 37 34 31 30 29 28 29 28 27 26 26 30 43 57 62
30 30 30 30 30 30 30 30 30 30 30 30 30 31 32 33 34 34 35 36 37 38 38 39 39 38 36 36 34 32 30 29 27 24 21 18 17 18 21 21 20 18 20 21 22 21 15 18 24 28 32 36 38 40 40 38 35 32 28 26 24 23 23 23 23 24 24 24 24 25 26 28 30 32 34 36 38 39 41 42 44 46 46 47 46 46 44 42 40 38 36 34 32 30 28 27 26 24 24 27 36 50 71
32 32 32 32 32 32 32 32 32 32 31 31 31 32 32 32 33 34 34 35 36 37 38 38 39 38 38 37 36 35 32 31 29 26 24 21 19 18 18 19 20 22 23 24 25 23 16 20 24 30 35 37 40 42 42 40 39 37 35 34 32 32 30 30 29 28 27 26 26 27 28 30 31 34 36 38 40 42 43 44 46 46 47 48 48 47 46 45 43 42 38 34 30 28 27 27 26 26 25 28 36 53 78
33 34 34 34 34 34 34 34 34 34 33 33 33 33 32 33 33 34 34 35 36 37 37 38 38 39 39 38 37 36 34 31 30 28 24 23 20 18 16 18 20 22 23 24 24 22 20 21 24 28 33 34 35 36 37 36 36 37 38 39 40 40 39 37 35 33 30 29 29 30 30 32 34 36 39 40 42 44 46 46 47 48 48 48 48 48 48 46 44 42 39 34 30 28 27 28 28 28 28 29 38 55 76
35 36 36 36 36 36 36 36 36 36 35 35 34 34 34 34 34 34 35 36 36 36 37 38 38 39 39 38 38 36 34 31 30 29 26 24 21 19 17 16 16 16 16 18 17 17 19 22 23 24 24 27 29 30 31 32 34 36 38 39 40 40 40 38 36 33 31 30 30 30 31 34 36 39 40 43 44 46 47 48 48 49 49 50 50 49 48 47 45 43 40 36 32 30 29 30 30 31 32 31 36 46 62
37 37 38 38 38 38 38 38 38 38 37 37 36 36 36 36 35 35 35 36 36 36 37 38 38 38 38 38 37 35 33 30 29 28 28 26 22 20 19 18 16 16 16 15 15 16 18 20 20 19 17 20 22 24 24 26 29 32 34 35 36 36 36 34 33 32 30 30 30 30 32 35 38 40 42 44 45 47 48 49 50 50 50 50 50 50 49 48 46 43 40 38 36 34 33 34 34 34 33 32 33 42 60
38 39 39 40 40 40 40 40 40 40 39 39 38 38 38 37 37 36 36 36 36 36 37 37 38 38 38 38 36 35 34 32 30 29 28 26 24 22 20 19 18 17 15 15 14 14 14 16 17 18 19 19 20 20 22 24 26 27 28 30 31 32 32 32 32 31 30 29 29 30 33 35 37 40 42 44 46 48 49 50 50 50 51 51 51 51 50 48 45 42 40 38 37 35 34 32 32 32 32 34 42 56 76
40 40 40 40 40 41 42 42 42 41 40 40 40 40 39 38 38 38 37 37 37 37 37 37 38 38 38 38 37 36 35 34 33 31 28 27 26 26 24 22 20 19 17 16 14 13 13 12 13 15 19 21 22 22 23 24 24 26 26 28 28 30 31 32 32 32 30 28 28 30 32 34 36 39 42 45 47 49 50 50 50 50 51 51 51 50 49 46 44 40 38 36 34 32 31 30 30 31 33 38 51 68 84
40 40 40 41 42 42 42 42 42 42 42 42 42 41 40 40 40 39 39 38 38 38 38 38 38 38 38 38 37 36 36 35 34 32 30 28 26 26 26 24 22 21 20 18 16 16 15 14 14 15 18 20 24 26 28 25 24 26 28 29 30 32 34 35 35 34 32 30 30 30 32 34 37 40 42 44 46 48 48 48 48 49 50 50 50 49 47 45 42 40 38 36 34 32 32 31 32 33 36 43 58 74 88
Wind_Speed
5 6 6 6 6 6 5 6 6 6 6 7 7 8 8 8 9 10 10 10 11 11 11 11 12 12 12 12 12 12 12 12 12 12 12 12 12 12 12 12 12 12 12 11 11 11 10 10 10 10 10 10 10 10 10 10 11 11 12 12 13 13 14 15 16 16 16 17 17 17 17 18 17 17 16 16 15 15 15 15 15 15 15 16 16 16 16 17 18 18 18 19 19 19 19 19 19 20 20 20 20 20 20
4 5 5 5 5 5 5 5 5 5 6 6 7 7 8 8 9 9 10 10 10 10 11 11 11 11 11 11 11 12 12 12 12 12 12 12 12 12 11 11 11 11 11 11 11 11 10 10 10 10 10 10 10 10 10 10 11 11 12 12 13 13 13 14 15 16 16 16 17 17 18 18 18 18 18 18 17 17 16 16 16 15 15 15 15 15 15 16 17 17 18 18 18 19 19 19 19 20 20 20 20 20 20
3 4 4 4 4 5 5 5 5 5 5 6 6 7 7 8 8 9 9 10 10 10 10 10 11 11 11 11 11 11 11 11 11 11 11 11 11 11 11 11 11 11 11 11 10 10 10 10 10 10 10 10 10 10 10 11 11 11 12 12 13 13 14 14 15 15 16 16 17 17 18 18 18 18 18 18 18 18 17 17 17 17 16 16 16 15 15 16 16 16 17 17 18 18 18 19 19 19 20 20 20 20 20
3 3 3 3 3 4 4 4 4 5 5 5 6 6 7 8 8 9 10 10 10 10 10 10 10 11 11 11 11 11 11 11 11 11 11 11 11 11 11 11 11 10 10 10 10 10 10 10 10 10 10 10 10 10 10 11 11 11 12 12 13 13 14 14 15 15 16 17 17 17 18 18 18 18 18 18 18 18 18 18 18 18 18 18 17 17 16 16 16 16 16 16 17 17 18 18 19 19 19 20 20 20 20
3 3 2 2 2 3 3 3 4 4 4 5 6 6 7 8 9 9 10 10 10 10 10 10 10 10 11 11 11 11 11 11 11 11 11 11 11 11 11 11 11 10 10 10 10 10 10 10 10 10 10 10 10 10 10 11 11 11 12 13 13 14 14 14 15 15 16 17 17 18 18 18 18 19 19 18 18 18 18 18 18 18 18 18 18 18 17 17 17 17 16 16 16 16 17 17 18 18 19 19 20 20 20
2 2 2 2 2 2 2 3 3 4 4 5 6 7 7 8 9 9 10 10 10 10 10 10 10 10 10 11 11 11 11 11 11 11 11 11 11 11 11 11 11 10 10 10 10 10 10 10 10 10 10 10 10 10 10 11 11 12 12 13 13 13 14 14 15 16 16 17 17 18 18 18 18 19 19 19 18 18 18 18 18 18 18 18 18 18 18 18 18 18 17 17 17 16 16 17 17 18 18 19 19 20 20
2 2 2 2 2 2 3 3 4 4 5 6 6 7 8 8 9 9 9 9 9 10 10 10 10 10 10 10 10 11 11 11 11 11 11 11 11 11 11 11 11 11 11 11 10 10 10 10 10 10 10 10 10 10 11 11 11 12 12 13 13 14 14 15 15 16 16 17 17 18 18 18 18 19 19 19 18 18 18 18 18 18 18 18 18 18 18 19 19 18 18 18 18 17 17 17 17 17 17 18 19 19 20
1 1 1 2 2 3 3 4 4 5 5 6 7 7 8 8 9 9 9 9 9 9 9 9 10 10 10 10 10 10 11 11 11 11 11 11 11 11 11 11 11 11 11 11 11 11 11 11 11 11 11 11 11 11 11 11 12 12 13 13 13 14 14 15 16 16 16 17 17 18 18 18 18 18 19 19 19 18 18 18 18 18 18 18 18 18 19 19 19 19 19 19 19 18 18 18 18 18 17 18 18 18 19
0 1 1 2 2 3 3 4 4 5 6 6 7 7 8 8 9 9 9 9 8 8 9 9 9 9 10 10 10 10 10 11 11 11 11 11 11 11 11 11 11 11 11 11 11 11 11 11 11 11 11 11 11 12 12 12 12 13 13 14 14 15 15 16 16 16 17 17 17 17 18 18 18 18 18 19 19 19 18 18 19 19 19 19 19 19 19 19 19 19 19 19 19 19 19 19 19 19 19 19 18 18 18
1 1 1 2 2 3 3 4 5 5 6 6 7 7 7 8 8 8 9 8 8 8 8 9 9 9 9 9 10 10 10 10 11 11 11 11 11 11 11 11 11 11 11 12 12 12 12 12 12 12 12 12 12 12 12 13 13 14 14 15 15 16 16 17 17 17 17 17 17 17 17 18 18 18 18 18 19 19 19 19 19 19 19 19 19 19 19 19 19 19 19 20 20 20 20 20 20 20 20 20 20 20 19
1 1 1 2 2 3 3 4 5 5 5 6 6 7 7 7 8 8 8 8 8 8 8 8 9 9 9 9 9 10 10 10 11 11 11 11 11 12 12 12 12 12 12 12 12 12 12 12 12 12 12 12 13 13 13 13 14 14 15 16 16 17 17 17 17 17 17 17 17 17 17 17 17 17 17 17 18 18 18 18 18 19 19 19 19 19 19 19 19 20 20 20 20 20 20 20 20 21 21 21 21 21 21
2 1 1 2 2 3 3 4 4 5 5 6 6 6 7 7 8 8 8 8 8 8 8 8 8 9 9 9 9 10 10 10 10 11 11 11 12 12 12 12 12 12 12 12 12 12 12 12 13 13 13 13 13 13 14 14 14 15 16 16 17 17 18 17 17 17 17 17 17 16 16 16 16 16 16 16 17 17 18 18 18 18 18 19 19 19 19 19 20 20 20 20 21 21 21 21 21 21 21 21 22 22 22
2 2 1 2 2 3 4 4 4 5 5 6 6 6 7 7 8 8 8 8 8 8 8 8 8 9 9 9 9 9 10 10 10 11 11 11 12 12 12 12 12 12 12 12 12 12 12 13 13 13 13 13 13 14 14 15 15 16 16 17 17 18 18 17 17 17 17 17 17 16 16 16 16 16 16 15 16 16 17 17 17 17 18 18 19 19 19 19 19 20 20 21 21 21 21 21 21 22 22 22 22 22 22
3 2 2 2 3 3 4 4 5 5 5 6 6 6 7 7 7 8 8 8 8 8 8 8 8 9 9 9 9 9 10 10 10 11 11 12 12 12 12 13 13 13 13 13 13 13 13 13 13 13 13 14 14 14 15 15 16 16 17 17 18 18 18 17 17 17 16 16 16 16 15 15 15 15 15 15 15 15 16 16 16 17 17 18 18 19 19 19 19 20 20 20 21 21 21 21 21 22 22 22 22 23 23
3 3 2 3 3 3 4 4 5 5 5 6 6 6 7 7 7 7 8 8 8 9 9 9 9 9 9 9 9 9 10 10 10 10 11 11 12 12 13 13 13 13 13 13 13 13 13 13 14 14 14 14 14 15 15 15 16 16 17 17 18 18 18 18 17 16 16 16 16 16 15 15 14 14 14 14 14 15 15 15 15 16 16 17 17 18 18 19 19 19 20 20 20 21 21 21 21 21 21 22 22 23 23
4 4 3 3 4 4 4 5 5 5 5 6 6 6 7 7 7 8 8 8 8 9 9 9 9 9 10 9 9 10 10 10 10 11 11 11 12 12 13 13 13 14 14 14 14 14 14 14 14 14 14 14 15 15 15 16 16 17 17 17 18 18 18 18 17 16 16 16 16 16 15 14 14 14 14 14 14 14 14 14 15 15 15 16 16 17 17 18 18 19 19 19 20 20 20 21 21 21 21 22 22 23 23
5 5 4 4 4 5 5 5 6 6 6 6 6 7 7 7 8 8 8 8 9 9 9 9 10 10 10 10 10 10 11 11 11 11 11 12 12 13 13 13 14 14 14 14 14 14 14 14 15 15 15 15 15 15 16 16 16 17 17 17 18 18 18 18 17 16 16 16 16 16 15 14 14 14 14 13 13 14 14 14 15 15 15 15 16 16 17 17 17 18 18 19 19 20 20 20 20 21 21 22 22 23 23
6 6 5 5 5 5 6 6 6 7 7 7 7 7 7 8 8 8 8 9 9 9 10 10 10 10 11 11 11 11 11 12 12 12 12 12 12 13 13 14 14 14 14 14 15 15 15 15 15 15 15 15 15 16 16 16 16 17 17 17 18 18 18 18 17 16 16 15 15 15 15 15 14 14 13 13 13 13 14 15 15 15 15 15 15 16 16 16 17 17 18 18 19 19 20 20 21 21 21 22 22 23 23
6 7 7 6 6 6 7 7 7 7 8 8 8 8 8 8 9 9 9 9 9 9 10 10 10 11 11 12 12 12 12 12 13 13 12 13 13 13 14 14 14 14 15 15 15 15 15 15 15 15 15 15 15 16 16 16 16 17 17 17 18 18 18 18 17 17 16 15 15 15 15 15 14 14 14 13 13 14 14 15 15 15 15 15 15 16 16 17 17 17 18 18 19 19 20 20 21 21 22 22 22 23 23
7 7 7 7 7 7 8 8 8 8 9 9 9 9 9 9 9 10 10 10 10 10 10 10 11 11 11 12 12 12 12 13 13 13 13 13 13 14 14 14 14 15 15 15 15 15 15 15 15 15 15 15 15 15 16 16 16 17 17 17 17 18 17 17 17 17 16 15 14 14 14 14 14 14 14 14 14 14 14 15 15 15 15 15 15 16 17 17 17 18 18 18 19 19 20 20 20 21 21 22 22 23 23
8 8 8 8 8 8 8 9 9 9 9 10 10 10 10 10 10 10 11 11 11 10 10 11 11 11 11 12 12 12 12 13 13 14 14 14 14 14 14 14 15 15 15 16 16 16 16 16 16 16 15 15 15 15 16 16 16 17 17 17 17 17 17 17 17 17 16 15 14 14 14 14 14 14 14 14 14 15 15 15 15 15 15 15 16 16 17 17 18 18 18 18 19 19 20 20 21 21 22 22 22 23 23
9 9 9 9 9 9 9 9 9 10 10 11 11 11 11 11 10 11 11 11 11 11 11 11 11 11 12 12 12 12 13 13 13 14 14 14 14 15 15 15 15 15 16 16 16 16 16 16 16 16 16 16 15 15 15 16 16 16 17 17 17 17 17 17 17 16 16 15 15 14 14 14 14 14 14 14 14 15 15 15 15 16 16 16 16 16 17 17 18 18 19 19 19 20 20 21 21 21 22 22 22 23 23
11 10 10 10 10 10 10 10 10 10 10 11 12 12 12 12 11 11 12 12 12 12 12 12 12 12 12 12 13 13 13 13 14 14 14 15 15 15 15 15 16 16 16 16 16 17 17 17 17 17 16 16 16 15 15 15 16 16 17 17 17 17 17 17 16 16 16 15 15 14 14 13 13 13 13 14 14 14 15 15 15 16 16 16 16 17 17 17 18 18 19 19 20 20 21 21 21 22 22 22 23 23 23
13 12 11 11 11 11 11 11 11 11 11 12 12 13 13 13 12 12 12 12 13 13 13 13 13 13 13 13 13 14 14 14 14 14 15 15 15 16 16 16 16 16 16 16 16 17 17 17 17 17 17 16 16 16 15 15 16 16 16 17 17 17 17 17 16 16 15 15 15 14 14 13 13 13 13 13 14 14 14 15 15 16 16 16 17 17 17 18 18 19 19 19 20 20 21 21 22 22 22 23 23 23 24
14 13 13 12 12 12 12 12 12 12 12 12 13 13 14 13 13 13 13 13 13 14 14 14 14 13 13 14 14 14 14 14 15 15 15 16 16 16 16 16 16 16 16 16 16 17 17 17 17 17 17 17 16 16 15 15 16 16 16 17 17 17 17 17 16 16 15 15 15 14 14 13 13 13 13 13 14 14 14 15 15 16 16 16 16 17 17 18 18 19 19 20 20 20 21 22 22 22 23 23 23 24 24
15 14 14 14 14 13 13 13 13 13 13 13 13 14 14 14 14 14 14 14 14 14 14 14 14 14 14 14 15 15 15 15 15 16 16 16 16 17 17 17 17 17 17 17 17 17 17 17 17 17 17 17 17 16 16 15 15 16 16 16 17 17 17 16 16 16 15 15 14 14 14 14 13 13 13 13 14 14 14 15 15 16 16 16 16 17 17 18 18 19 19 20 20 21 21 22 22 23 23 23 23 24 24
15 15 15 15 15 15 14 14 14 14 14 13 14 14 15 15 15 15 15 15 15 15 15 15 15 15 14 15 15 15 16 16 16 16 16 16 17 17 17 17 18 18 17 17 17 17 17 17 17 17 17 17 17 16 16 16 16 16 16 16 16 17 17 16 16 16 15 15 14 14 14 14 13 13 13 14 14 14 14 15 15 15 16 16 16 17 17 18 19 19 20 20 20 21 22 22 22 23 23 24 24 24 25
16 16 16 16 16 16 16 15 15 15 15 14 14 15 15 16 16 16 16 16 16 16 16 16 16 15 15 15 15 16 16 16 16 16 16 17 17 17 17 18 18 18 18 18 18 18 18 18 18 18 18 18 17 17 16 16 16 16 16 16 16 16 16 16 16 15 15 15 14 14 14 14 14 13 13 14 14 14 14 14 15 15 15 16 16 17 17 18 19 19 20 20 21 21 22 22 23 23 23 24 24 25 25
17 16 17 17 17 17 16 16 16 16 16 16 15 16 16 16 17 17 17 17 17 17 17 17 17 16 16 16 16 16 16 16 16 17 17 17 17 17 17 18 18 18 18 18 18 18 18 18 18 18 18 18 18 17 17 16 16 16 16 16 16 16 16 16 16 15 15 14 14 14 14 14 13 13 13 14 14 14 14 14 14 15 15 15 16 17 17 18 19 19 20 20 21 21 22 22 23 23 23 24 24 25 25
18 17 17 18 18 18 17 17 17 17 17 17 16 16 17 17 17 18 18 18 18 18 18 18 17 17 17 16 16 17 17 17 17 17 17 17 17 17 17 18 18 19 19 19 19 19 19 19 18 18 18 18 18 18 17 17 16 16 16 16 16 16 16 16 16 15 15 14 14 14 14 13 13 13 13 13 13 13 14 14 14 15 15 16 16 17 18 18 19 19 20 21 21 22 22 22 23 23 23 24 24 25 25
19 18 18 19 19 18 18 18 18 18 18 18 17 17 18 18 18 18 18 18 19 19 19 19 19 18 18 17 17 17 17 17 17 18 18 17 17 17 18 18 18 19 19 19 19 19 19 19 19 19 19 19 19 18 18 17 17 16 16 16 16 16 16 16 15 15 15 14 14 14 13 13 13 13 13 13 13 13 14 14 14 15 15 16 16 17 18 19 19 20 20 21 21 22 22 23 23 23 23 24 24 25 25
20 20 20 20 20 19 19 19 19 19 19 18 18 18 19 19 19 19 19 19 19 19 19 19 19 19 19 19 18 18 18 18 18 18 18 18 18 18 18 18 18 19 19 19 19 19 19 19 19 19 19 19 19 19 19 18 18 17 16 16 16 16 16 16 15 15 14 14 14 13 13 13 13 13 13 13 13 14 14 14 14 15 15 16 16 17 18 19 19 20 21 21 22 22 22 22 23 23 23 24 25 25 26
22 21 21 21 21 20 20 20 20 20 20 19 19 19 20 20 19 19 19 20 20 20 20 20 20 20 20 20 19 19 19 19 19 19 19 19 19 18 18 18 19 19 19 19 19 19 19 19 19 19 19 19 19 19 19 19 19 18 17 17 16 16 16 16 15 15 14 14 13 13 13 13 13 13 13 13 14 14 14 14 15 15 15 16 16 17 18 19 20 20 21 21 22 22 22 22 23 23 23 24 25 25 26
23 23 22 22 22 21 21 21 21 21 20 20 19 20 21 21 21 20 20 20 21 21 21 21 21 21 21 21 20 20 20 20 20 20 20 20 20 19 19 19 19 19 19 19 19 19 19 19 19 19 19 19 20 20 20 20 19 19 18 17 17 16 16 16 15 15 14 14 13 13 13 13 14 14 14 14 14 14 14 15 15 15 15 16 17 18 19 19 20 21 21 21 22 22 22 23 23 23 24 24 25 25 26
25 24 24 24 23 23 22 22 21 21 21 21 20 20 21 22 21 21 21 21 22 22 21 21 21 21 21 21 21 21 21 20 20 20 21 21 21 20 20 20 20 19 19 19 19 19 19 19 19 19 19 19 20 20 20 20 20 19 19 18 17 16 16 16 15 15 14 14 14 13 14 14 14 14 14 14 14 15 15 15 15 15 16 16 17 17 19 19 20 21 21 22 22 22 22 23 23 23 23 24 25 25 26
26 26 26 25 25 24 24 23 22 22 22 22 21 21 22 22 22 22 22 23 23 22 22 22 22 22 22 22 22 21 21 21 21 21 21 21 21 21 21 21 20 20 20 19 19 19 19 19 19 19 19 19 20 20 20 20 20 19 19 18 17 17 16 16 16 15 15 14 14 14 14 14 14 14 14 14 15 15 15 15 15 16 16 16 17 18 18 19 20 21 21 22 22 22 22 22 23 23 23 24 25 25 26
28 28 28 27 27 26 25 25 24 23 23 23 22 22 23 23 23 23 23 23 24 23 23 23 23 23 22 22 22 22 22 22 22 22 22 22 22 22 22 21 21 21 20 20 20 19 19 19 19 19 19 19 20 20 20 20 20 19 19 18 17 17 16 16 16 16 15 15 14 14 14 14 14 14 14 15 15 15 15 15 16 16 16 16 17 17 18 19 20 20 21 22 22 22 22 22 23 23 24 24 25 25 25
30 30 29 29 28 28 27 26 25 25 25 24 24 23 23 23 24 24 24 24 25 24 24 24 24 24 23 23 23 23 23 23 23 23 23 23 23 23 23 22 22 22 21 21 20 20 20 19 19 19 19 19 20 20 20 20 20 19 18 17 17 17 17 17 17 16 16 15 15 15 15 15 15 15 15 15 15 15 15 15 15 15 15 16 16 17 18 18 19 20 21 21 21 22 22 22 23 23 24 25 25 25 25
32 32 31 31 30 30 29 28 27 26 26 26 25 25 24 24 24 25 25 25 25 25 25 25 25 25 24 24 24 24 24 24 24 24 24 24 23 23 23 23 23 22 22 21 21 20 20 20 19 19 19 19 20 20 20 20 20 19 18 17 16 16 17 18 18 17 17 16 15 15 15 15 15 16 16 16 16 16 16 16 15 15 15 15 15 16 17 17 18 19 20 21 21 22 22 22 23 24 24 25 25 25 25
34 34 33 33 32 31 30 29 29 28 28 28 27 26 26 25 26 26 26 26 26 26 26 26 26 26 26 25 25 25 25 25 25 24 24 24 24 24 24 24 23 23 22 22 21 21 20 20 20 20 20 20 20 20 20 20 19 18 17 16 16 16 17 18 18 18 17 17 16 16 16 17 17 17 17 17 17 17 16 16 16 15 15 15 15 15 16 16 17 18 19 21 21 22 22 23 23 24 24 25 25 25 25
36 35 35 34 33 33 32 31 31 30 30 29 29 28 27 27 27 27 27 27 27 27 27 27 27 27 27 26 26 26 26 26 25 25 25 25 25 25 25 24 24 24 23 22 22 21 21 20 20 20 20 20 20 20 20 20 19 18 17 16 15 15 16 17 18 18 17 17 17 18 18 18 18 18 18 18 18 18 17 17 16 16 15 15 15 15 15 16 17 18 19 21 21 22 23 23 23 24 24 25 25 25 25
38 37 36 36 35 34 34 33 33 32 32 31 30 30 29 29 28 28 28 28 28 28 29 28 28 27 27 27 27 27 27 27 27 26 26 26 25 25 25 25 25 24 23 23 22 22 21 21 21 20 20 20 20 20 20 20 19 18 16 15 15 16 17 18 18 18 18 18 18 19 19 19 19 19 19 19 19 19 19 18 17 17 16 16 15 15 16 16 17 18 19 20 21 22 23 23 24 24 25 25 25 25 25
39 39 38 37 37 36 36 35 35 34 34 33 32 32 31 30 29 29 29 29 29 29 30 29 29 28 28 28 28 28 28 28 28 27 27 26 26 26 26 26 25 25 24 23 23 22 22 22 21 21 21 21 20 20 20 20 19 17 16 15 15 16 18 18 19 19 18 18 19 19 20 20 20 20 20 20 20 20 20 19 18 18 17 17 16 16 16 17 17 18 19 20 21 22 23 24 24 25 25 25 25 25 25
40 40 40 39 39 38 38 37 37 36 36 35 34 34 33 32 31 31 30 30 30 31 31 31 30 29 29 29 29 29 29 29 28 28 28 27 27 27 27 27 26 25 25 24 23 23 22 22 22 22 21 21 20 20 20 19 18 17 16 15 16 17 19 20 20 19 19 19 19 20 21 21 21 21 21 21 21 21 21 20 20 19 19 18 17 17 17 17 17 18 19 20 21 22 23 24 24 25 25 25 25 25 25
42 42 41 41 41 40 40 40 39 39 38 37 37 36 35 34 33 33 32 32 32 32 32 32 31 30 30 29 30 30 30 29 29 29 29 29 28 28 28 28 27 26 26 25 24 24 23 23 22 22 22 21 20 20 19 19 17 16 15 16 17 18 20 21 21 20 20 20 20 21 21 22 22 22 22 22 22 22 22 21 21 21 20 19 19 18 18 18 18 18 19 20 21 22 23 24 24 25 25 25 25 25 25
44 44 43 43 43 42 42 42 41 41 40 39 39 38 37 36 36 35 34 34 33 33 32 32 32 32 31 30 30 30 30 30 30 30 30 30 30 29 29 29 28 27 27 26 25 25 24 24 23 22 22 21 20 19 18 18 16 15 15 16 17 19 21 22 21 21 20 20 21 21 22 22 23 23 23 23 23 23 23 23 22 22 21 21 20 19 19 18 18 19 20 20 21 22 23 23 24 24 25 25 25 25 26
46 46 45 45 45 44 44 44 44 43 42 42 41 40 40 39 38 37 36 35 35 34 33 33 33 33 32 32 31 31 31 31 30 30 30 30 30 30 30 29 29 28 27 27 26 25 25 24 24 23 22 20 19 18 18 17 16 15 15 16 18 20 22 22 22 21 21 21 21 22 22 23 23 23 24 24 24 24 24 24 24 24 23 22 22 21 20 20 19 20 20 21 22 22 22 23 23 24 24 25 25 25 26
48 48 47 47 46 46 46 46 46 46 45 44 44 43 42 41 40 38 37 36 36 35 34 34 34 34 34 33 33 32 31 31 31 31 30 31 31 31 30 30 29 29 28 27 27 26 25 25 24 23 22 20 19 18 17 16 15 15 15 17 19 21 22 23 22 22 21 21 22 22 23 23 23 24 24 24 24 25 25 25 25 25 25 24 23 22 22 21 21 20 21 21 22 22 22 23 23 24 24 25 25 26 27
50 49 49 49 48 48 48 48 48 48 47 47 46 45 44 42 41 40 39 38 37 36 35 35 35 35 35 35 34 33 33 32 32 31 30 31 31 31 31 30 29 29 29 28 27 26 25 25 24 24 22 20 18 17 16 15 15 15 16 18 20 21 22 22 22 22 22 22 22 23 23 23 24 24 24 24 25 25 25 26 26 26 26 25 25 24 23 22 22 21 22 22 22 22 23 23 23 24 24 25 26 27 27
51 51 50 50 50 50 50 50 50 50 49 49 48 46 45 44 42 42 41 40 39 38 37 37 37 36 36 36 36 35 34 33 32 31 31 31 31 31 31 30 29 29 28 28 27 26 25 25 24 23 22 19 17 16 16 15 15 16 17 18 20 21 22 22 22 22 22 22 23 23 23 24 24 24 24 24 24 25 25 26 26 27 27 27 26 26 25 24 23 23 23 23 23 23 23 24 24 24 25 26 26 27 27
52 52 52 51 51 51 51 51 51 51 51 50 49 48 47 45 44 44 43 42 41 40 39 39 38 38 37 37 36 36 35 34 33 32 31 32 32 30 29 28 28 28 28 28 27 25 24 23 23 22 21 19 17 16 15 16 16 17 18 19 20 21 21 21 21 22 22 23 23 23 24 24 24 24 24 24 24 25 25 26 27 27 27 27 27 27 26 26 25 25 24 24 24 24 24 24 25 25 26 26 27 27 27
53 53 52 52 52 52 52 52 52 52 51 51 50 50 49 48 47 46 45 44 43 42 41 40 40 39 39 37 37 36 36 35 35 34 33 32 31 29 27 26 26 26 26 26 25 24 22 22 21 20 19 18 17 16 16 16 17 18 18 19 19 20 20 20 21 21 22 23 23 24 24 24 23 23 24 24 25 25 26 26 27 28 28 28 28 28 28 28 27 27 26 25 25 25 25 25 25 26 26 26 26 26 26
53 53 53 53 53 52 52 52 52 52 52 52 52 51 51 50 49 48 47 46 45 44 43 42 41 40 40 39 38 37 37 37 36 36 34 32 30 28 27 25 25 25 25 21 22 23 23 22 21 20 18 17 17 17 17 18 18 19 19 19 19 19 19 20 20 21 22 23 23 24 24 24 23 23 24 24 25 26 26 27 28 28 28 28 29 29 29 29 28 28 27 26 26 26 26 26 26 26 26 26 26 26 26
54 54 54 53 53 53 53 53 53 53 53 53 53 52 52 52 51 50 49 48 47 46 45 44 43 41 41 40 39 38 37 37 37 36 35 33 31 28 26 26 26 25 23 20 17 17 19 16 15 16 17 16 16 17 18 18 19 19 20 20 19 19 19 19 20 21 22 23 23 23 23 23 23 23 24 24 25 26 26 27 27 28 28 29 29 30 30 30 30 29 28 28 27 27 27 26 26 26 26 26 25 25 26
54 54 54 53 53 53 53 53 53 53 54 53 53 53 53 53 52 52 51 50 49 48 47 46 45 43 42 41 40 39 38 38 37 37 36 35 34 31 28 27 25 22 20 19 18 16 16 15 13 13 15 15 15 16 18 18 19 19 19 19 19 19 20 20 21 22 23 23 23 23 23 23 23 23 24 24 25 25 26 27 27 28 28 29 30 30 30 30 30 30 29 29 28 27 27 26 26 26 26 25 25 25 26
54 54 54 54 54 53 53 53 53 54 54 54 54 54 54 53 53 52 51 50 49 49 48 47 46 45 43 41 40 39 38 37 37 37 36 36 35 33 31 28 23 18 15 15 18 20 18 16 14 13 15 16 16 16 18 18 18 18 18 19 19 19 20 21 22 23 24 24 23 23 23 23 23 23 24 24 25 25 26 26 27 28 28 29 30 30 31 31 31 30 30 29 28 28 27 27 26 26 26 26 25 26 26
54 54 54 54 54 54 53 53 54 54 54 54 54 54 54 54 53 52 51 51 50 50 49 48 47 46 45 42 40 39 38 38 38 38 37 36 35 34 33 31 30 27 21 18 17 17 17 17 14 11 13 15 15 16 17 17 18 18 18 19 20 21 21 22 23 24 24 24 23 23 22 22 23 23 24 24 25 25 26 26 27 27 28 29 30 31 31 31 31 30 30 29 29 28 28 27 27 26 26 26 26 26 26
53 54 54 54 54 53 53 54 54 54 54 55 55 54 54 54 53 53 53 52 52 51 50 49 48 47 46 43 41 39 39 39 38 38 37 36 36 35 34 33 31 30 30 28 25 22 21 20 19 17 14 16 18 19 19 19 20 20 21 21 22 22 23 23 24 24 23 23 23 23 22 22 22 23 24 24 25 25 25 26 26 27 28 29 30 31 31 31 30 30 29 29 29 29 28 28 27 27 26 26 25 25 26
52 53 53 53 53 53 53 53 54 54 54 55 55 55 54 55 55 54 54 53 53 52 51 50 49 48 46 45 43 41 41 40 40 39 37 36 36 37 35 34 32 31 30 30 30 29 27 25 25 25 22 20 21 22 22 21 21 22 22 22 22 22 23 23 23 23 22 22 22 22 22 23 23 23 24 24 25 25 25 26 27 28 29 30 31 31 31 30 30 29 28 28 28 28 28 28 27 27 26 26 25 26 26
51 52 52 52 53 53 53 53 53 54 54 55 55 55 55 55 55 55 54 53 53 52 51 51 50 49 48 46 45 43 42 41 40 40 39 37 37 38 36 34 33 32 31 30 30 29 29 29 29 27 25 23 22 23 23 23 23 22 23 23 23 23 23 22 22 21 21 21 21 22 23 23 23 23 24 24 24 25 26 27 28 29 30 30 31 31 30 30 29 28 28 27 27 27 28 28 27 27 26 26 26 26 27
50 51 51 52 52 52 52 53 53 54 54 55 55 55 56 56 55 55 54 53 53 53 52 51 50 49 49 48 47 45 44 42 41 40 40 39 38 38 37 35 34 33 31 30 30 29 29 28 28 28 27 27 26 25 25 26 25 24 24 24 23 22 22 21 21 21 21 21 21 22 23 24 24 24 24 25 25 26 27 28 29 30 30 30 30 30 29 29 28 28 28 27 28 28 28 28 28 27 27 26 26 27 27
Wind_Direction
90 89 87 83 80 78 77 73 67 61 54 47 42 40 39 38 36 35 34 33 32 30 29 27 26 25 24 23 22 21 21 20 19 18 17 16 16 15 14 13 12 11 11 10 10 10 10 9 8 8 8 8 8 9 10 11 12 13 13 12 10 12 20 25 23 19 18 17 18 18 16 15 15 13 12 11 10 9 8 7 6 5 5 5 4 4 4 4 4 3 4 3 3 3 2 1 360 359 358 358 358 357 356
88 89 87 85 80 74 70 68 64 58 51 44 39 36 34 32 31 31 31 30 29 28 26 24 23 22 21 20 19 19 18 18 17 16 15 15 14 13 12 11 10 10 9 8 8 8 7 6 6 6 6 7 7 8 9 10 11 11 12 11 9 11 17 22 21 18 16 16 16 17 16 16 15 14 13 12 11 10 9 7 6 6 5 4 3 2 2 2 1 1 1 1 1 1 1 0 360 359 359 358 358 357 356
85 87 86 85 79 72 66 64 60 55 47 39 34 31 28 27 26 25 25 26 26 24 22 21 19 18 17 17 16 15 15 14 14 14 13 12 12 11 10 9 9 8 8 7 7 6 6 5 5 5 5 6 7 8 9 9 10 10 10 10 8 10 15 19 18 16 14 14 14 15 15 15 15 15 14 13 12 11 10 9 8 7 5 4 2 1 1 0 359 359 359 359 359 359 359 359 359 359 359 359 358 357 356
85 84 85 83 77 70 64 60 54 48 40 33 29 26 23 21 20 20 20 21 22 20 18 16 15 14 13 12 12 12 11 10 10 10 10 9 9 9 8 8 7 6 6 6 6 5 4 4 4 5 5 5 6 7 8 9 9 10 10 9 8 9 13 16 16 15 14 13 13 14 14 14 14 13 13 12 12 11 11 10 9 8 7 5 4 3 2 1 359 358 357 357 357 357 358 358 358 358 358 358 358 357 357
83 79 79 77 72 65 60 54 48 40 33 27 22 19 17 15 14 15 16 17 17 15 13 11 10 9 8 7 7 7 7 6 6 6 7 6 6 6 6 6 5 4 4 4 4 4 3 3 3 4 4 5 5 6 7 8 9 9 9 9 8 8 11 14 15 14 13 12 12 12 13 13 13 12 11 11 10 10 9 9 8 8 8 6 5 4 4 3 1 360 358 357 357 357 357 357 356 356 356 356 356 356 356
81 75 69 62 61 56 50 43 36 29 23 19 15 12 10 9 10 11 12 13 13 10 7 6 5 4 3 3 2 2 2 2 2 2 2 2 3 3 3 3 3 2 2 2 2 2 2 2 3 3 3 4 5 6 7 8 9 9 8 8 7 7 9 12 14 14 13 12 11 11 11 12 12 11 10 9 9 8 7 7 6 6 6 6 5 5 5 5 3 2 1 360 358 358 356 356 355 355 355 355 355 355 355
78 72 60 52 43 38 35 29 23 18 14 11 9 7 6 5 6 8 9 9 8 5 2 1 0 360 359 359 358 358 357 358 358 358 358 359 359 360 0 1 0 0 360 360 360 0 1 1 1 1 2 3 5 6 7 8 8 8 8 8 7 7 8 11 13 14 12 11 10 9 9 10 10 10 9 8 7 7 5 5 5 5 5 4 4 5 5 5 4 3 2 1 360 359 358 357 355 355 354 354 354 354 353
72 58 47 36 28 23 21 18 15 13 11 8 5 4 3 2 1 2 4 4 3 1 357 356 355 355 355 354 354 353 353 353 354 354 354 355 356 357 357 358 358 358 358 358 358 359 359 359 360 360 1 2 3 5 6 7 7 7 7 7 7 7 9 11 13 13 12 11 9 8 8 9 9 9 8 7 6 5 4 3 3 3 3 3 3 4 4 4 3 2 1 0 360 359 358 357 356 355 355 354 353 352 352
357 30 25 18 12 11 9 9 8 7 6 4 2 360 358 358 357 356 357 358 358 356 353 351 350 350 350 349 349 349 349 349 350 350 351 352 352 354 354 355 356 356 356 356 356 357 357 358 358 358 359 1 2 4 5 5 5 6 7 6 6 7 9 11 13 13 12 10 9 7 7 8 8 8 7 6 5 3 2 2 2 2 2 2 2 3 3 3 2 0 360 359 359 358 358 358 358 357 356 355 354 353 352
277 335 354 358 358 359 360 360 1 1 360 358 357 355 353 352 351 350 349 350 350 350 348 346 344 344 344 344 345 345 345 346 347 347 348 349 350 351 351 353 353 354 354 354 355 355 356 356 356 356 358 360 1 2 3 4 4 5 6 6 7 8 9 11 12 12 10 10 8 7 6 7 8 8 7 6 4 2 0 0 1 1 1 1 2 2 2 1 360 359 358 358 358 358 358 359 359 358 358 357 355 354 352
259 293 330 342 345 349 349 352 354 354 353 351 350 348 347 346 345 344 344 343 343 343 342 341 340 338 338 339 340 341 342 342 343 344 345 346 347 348 349 350 351 352 352 353 353 354 354 353 354 355 356 358 359 1 1 2 3 5 5 6 7 8 9 11 11 10 9 8 8 7 6 7 7 7 6 6 4 2 360 360 360 0 1 1 1 1 1 360 359 358 358 357 357 358 359 359 359 359 358 357 356 355 353
251 271 304 325 333 336 339 342 344 345 345 344 342 342 341 340 339 338 338 337 336 336 336 335 333 333 333 333 334 336 338 339 340 341 342 343 344 345 346 347 349 350 351 351 352 352 352 351 352 353 355 357 358 359 360 1 3 4 5 6 7 7 9 10 10 9 7 6 6 6 6 6 5 6 6 6 4 1 359 359 359 360 0 0 0 0 360 359 358 357 357 357 357 358 359 359 358 358 357 356 356 355 354
248 262 285 306 318 323 328 331 334 336 336 336 336 335 335 334 333 332 331 330 330 329 329 328 327 326 327 328 329 331 333 335 337 338 339 341 342 343 344 345 346 348 349 350 350 350 350 349 350 352 354 355 356 357 358 360 2 3 4 5 6 6 8 9 9 7 5 4 4 5 6 5 4 4 5 5 3 360 358 358 358 359 360 360 360 360 359 358 357 357 357 357 357 358 358 358 357 356 355 355 354 354 353
252 260 277 293 305 311 316 321 323 326 327 328 328 327 327 327 326 325 324 324 323 322 322 321 321 321 321 322 324 326 329 332 334 336 337 338 339 341 342 343 344 346 347 348 348 348 348 348 350 351 353 353 354 355 357 359 0 2 3 5 5 5 6 8 7 6 4 3 2 3 5 4 3 2 3 3 1 358 356 356 357 359 360 360 359 359 358 358 357 356 357 357 357 357 357 356 356 354 353 353 353 352 352
257 265 275 285 293 300 305 309 312 315 317 318 319 319 318 318 318 318 317 317 317 316 316 316 316 316 316 318 320 323 326 328 331 334 335 336 337 339 340 341 343 344 345 346 346 346 347 348 349 350 351 352 353 354 356 358 359 1 2 3 4 3 4 6 5 4 2 1 1 2 3 3 2 0 1 1 359 356 354 354 356 358 360 360 359 358 357 356 356 355 356 356 356 355 355 354 353 352 351 351 351 351 351
263 268 274 280 286 291 295 298 301 304 307 308 309 309 310 310 310 310 310 311 311 311 312 312 312 313 314 316 318 321 323 326 328 331 333 334 335 337 338 340 341 342 343 343 344 344 346 347 348 349 349 350 351 353 355 356 357 359 1 2 2 2 2 3 3 2 1 360 360 360 1 1 360 359 359 358 356 353 352 352 355 358 360 360 358 356 355 354 354 354 354 354 354 353 353 352 351 351 350 350 349 349 349
266 270 274 277 280 284 287 290 292 295 297 299 300 301 302 304 304 304 305 306 307 308 309 309 310 311 313 314 317 320 322 324 326 329 331 333 334 335 337 338 339 340 341 341 342 343 344 345 346 347 348 348 349 351 353 354 356 357 359 0 0 360 360 360 0 0 360 358 358 358 359 359 359 357 356 355 353 351 351 353 356 359 360 359 356 353 352 352 352 353 353 352 352 351 351 350 350 349 349 348 348 347 347
264 269 272 274 276 279 282 285 287 289 291 292 293 295 297 298 299 300 301 302 304 305 306 307 309 310 312 314 316 319 321 322 324 327 330 331 333 334 335 336 337 338 338 339 340 341 343 344 344 345 346 347 348 349 350 352 353 355 357 358 358 358 357 357 357 358 358 357 356 356 357 357 357 356 355 354 353 351 352 353 356 357 358 357 353 350 349 350 351 351 352 351 350 350 349 349 348 347 347 347 346 345 345
260 266 271 273 275 277 280 282 285 287 289 290 291 292 294 296 297 298 299 300 301 302 304 305 306 308 310 312 314 317 319 320 322 325 328 330 331 332 333 334 335 336 336 337 338 340 341 341 342 343 344 345 346 347 348 349 351 353 355 356 356 356 355 354 354 355 356 356 355 355 355 355 355 355 355 354 353 352 353 354 355 356 357 355 351 348 347 348 350 350 350 349 349 349 348 347 346 345 345 345 344 343 343
259 264 269 273 275 277 279 282 284 286 288 289 290 291 293 294 296 297 298 298 299 300 300 302 303 305 307 309 311 314 316 318 320 322 325 327 329 330 331 332 333 334 335 336 337 338 338 339 340 340 342 343 344 345 347 347 349 350 352 352 353 353 353 352 352 352 353 354 353 353 353 353 354 354 354 354 353 353 353 354 354 355 354 353 350 348 347 348 349 349 349 348 347 347 346 345 344 343 343 342 342 341 341
261 263 267 272 275 277 279 281 283 285 287 288 289 290 291 292 294 294 295 296 296 297 297 298 300 302 304 305 308 310 313 315 317 320 322 324 326 328 329 330 331 332 333 334 335 335 336 337 337 338 340 341 343 344 345 346 346 347 349 349 349 350 350 350 349 349 350 351 352 352 352 352 353 353 354 353 353 352 353 353 353 353 352 351 349 348 347 348 348 347 347 346 345 345 344 343 342 342 341 340 339 339 339
264 264 266 269 273 276 278 280 281 283 285 286 287 288 289 289 290 290 292 293 294 295 296 296 298 300 302 304 306 308 311 313 315 317 319 322 323 325 327 328 329 331 332 332 333 333 334 335 335 336 337 339 341 342 343 344 344 345 345 346 346 347 347 347 347 347 347 348 349 350 350 351 351 352 353 352 352 352 352 351 352 351 351 349 348 347 347 347 347 346 345 344 344 343 342 341 340 339 339 338 337 337 337
266 265 265 267 270 273 276 278 279 280 281 283 285 286 287 287 288 288 289 291 293 294 295 296 298 300 301 303 305 307 309 311 313 315 317 319 321 323 325 326 327 329 330 330 331 331 332 333 333 334 335 337 339 340 341 341 342 342 342 343 343 344 344 344 344 344 344 344 345 347 349 350 351 352 352 351 351 351 351 350 350 351 349 348 347 346 346 345 345 344 343 343 342 341 340 339 338 337 337 336 336 336 336
267 267 267 267 268 270 272 274 275 276 276 278 280 282 284 286 287 288 289 290 292 294 295 297 298 299 301 303 304 306 308 309 311 313 315 317 319 321 322 324 325 327 328 329 329 329 330 330 331 332 333 334 336 337 338 339 339 339 339 339 340 340 341 341 341 341 341 341 342 344 346 348 350 351 351 351 351 351 350 349 350 349 348 347 346 345 344 344 343 342 342 341 341 340 339 337 336 335 335 335 334 334 334
266 268 268 268 268 268 269 271 272 273 273 274 277 280 282 284 285 287 288 290 291 293 294 296 297 299 301 302 303 304 306 308 310 311 313 315 317 318 320 321 323 324 325 326 327 327 327 328 328 329 330 331 332 334 335 336 336 336 336 336 337 337 337 338 338 338 339 338 340 342 344 346 348 350 350 349 349 349 348 348 348 348 347 345 344 343 342 342 342 341 340 339 339 338 337 336 334 334 334 333 333 333 333
264 266 268 269 270 270 270 271 272 273 274 275 277 279 281 283 284 286 287 288 290 291 292 294 296 297 299 301 301 302 304 306 308 310 311 313 315 316 317 319 320 321 323 323 324 324 325 325 325 326 327 328 329 331 332 333 333 333 333 333 333 334 334 335 335 335 336 336 337 339 342 344 346 347 348 348 348 348 348 347 346 345 343 343 342 341 341 340 339 339 338 338 337 336 335 334 333 333 333 333 332 332 332
262 264 267 269 270 271 272 272 273 275 276 277 277 279 281 283 284 285 286 287 288 289 290 292 293 295 297 298 299 300 302 304 305 307 309 311 312 313 315 316 317 318 320 321 321 322 322 322 323 323 324 325 326 328 329 330 331 331 330 330 330 331 331 331 332 332 333 334 335 337 340 342 344 345 346 346 347 347 348 346 344 343 341 341 340 339 338 338 337 336 336 336 336 335 333 332 332 332 332 332 332 332 331
261 263 265 267 269 270 271 273 274 275 276 277 277 278 280 282 283 285 285 286 287 288 289 290 291 293 294 295 296 298 299 301 302 304 305 307 309 310 312 313 314 316 317 318 319 320 320 320 321 321 322 323 324 325 326 328 328 328 327 327 327 327 328 329 329 329 330 331 333 335 338 340 342 343 344 344 345 346 346 344 342 340 339 339 338 337 336 335 334 333 333 333 333 332 331 331 331 331 331 331 331 330 330
261 262 263 265 267 269 270 271 272 273 274 275 276 277 278 280 282 284 285 286 287 288 288 289 290 292 293 293 294 294 296 298 299 300 302 303 305 307 309 310 312 313 314 316 317 317 318 318 319 319 320 321 321 322 323 324 325 325 324 324 324 325 325 326 326 327 328 329 330 332 335 338 340 341 341 342 343 344 344 342 340 338 337 337 336 335 334 332 331 331 330 330 330 330 329 329 329 330 330 330 330 329 329
261 261 262 264 265 267 268 269 270 271 272 273 274 275 276 277 280 282 283 285 286 287 287 288 289 290 291 291 291 292 293 294 295 296 298 300 302 304 306 307 309 310 312 313 314 315 315 316 316 317 317 318 318 319 320 321 322 322 322 321 321 322 323 323 324 325 326 327 328 330 333 336 338 339 340 340 341 341 340 339 337 336 336 336 334 333 331 330 329 328 328 327 327 327 327 327 328 329 329 329 329 328 328
260 261 261 262 264 265 266 267 268 269 270 272 273 274 274 275 277 279 281 282 284 285 286 287 288 289 289 289 289 290 291 292 292 293 295 297 299 301 303 304 306 307 309 310 311 312 313 313 314 314 315 315 315 316 316 318 319 319 319 318 319 319 320 321 322 322 323 324 325 327 330 332 334 336 337 337 338 337 336 334 334 334 334 333 333 331 328 327 326 325 324 324 323 323 324 325 326 327 328 328 327 327 327
259 259 260 261 262 264 265 266 266 268 269 270 272 272 273 274 275 276 278 279 281 282 284 285 286 287 288 288 288 288 289 290 290 291 293 295 296 298 300 301 303 304 306 307 308 309 310 310 311 311 312 312 312 313 314 315 316 317 317 316 316 317 318 319 319 320 320 321 322 324 326 329 331 333 335 336 335 333 331 330 330 330 331 330 329 327 325 323 322 322 321 320 320 320 322 322 324 325 326 326 325 326 326
258 258 259 260 262 263 264 264 265 266 268 269 270 271 272 272 273 274 275 277 278 279 281 282 284 285 286 287 287 288 288 289 289 290 292 293 294 295 297 298 299 301 302 304 305 306 306 307 308 308 308 309 309 311 312 313 314 314 314 314 314 315 316 317 317 317 317 318 318 320 323 326 329 331 334 334 333 331 329 328 328 328 327 327 326 323 321 320 319 318 317 317 317 318 319 320 321 322 323 323 323 324 324
258 258 259 260 261 262 262 263 265 266 267 268 269 269 270 271 272 273 273 274 275 276 278 280 281 283 284 285 286 286 287 288 288 289 290 291 292 293 294 295 296 298 299 300 301 302 303 303 304 305 305 306 307 308 310 311 312 313 313 312 312 313 314 315 315 315 314 314 315 316 319 324 327 330 331 332 332 330 329 328 327 326 325 324 322 320 318 317 315 315 314 314 315 316 317 317 318 320 321 321 322 322 323
258 258 258 259 260 260 261 262 264 265 266 267 267 268 269 270 271 271 271 272 273 274 275 277 278 279 281 282 283 284 285 286 286 287 288 289 290 291 292 292 293 294 296 297 298 299 300 300 301 301 302 303 305 306 308 309 310 310 310 310 310 311 313 314 313 313 312 311 311 313 317 321 326 329 330 330 330 330 329 327 326 325 324 322 320 318 316 315 314 313 313 313 313 314 314 315 316 318 318 319 320 320 321
257 258 258 258 258 259 260 261 262 264 265 266 266 266 267 268 269 269 270 270 271 272 273 274 275 277 278 279 281 282 283 284 284 285 285 286 287 288 289 290 290 291 293 294 295 296 296 297 298 298 299 300 302 304 306 307 308 308 307 307 307 309 311 312 312 310 309 308 309 311 315 319 323 326 328 329 329 329 329 327 325 324 322 320 319 317 315 314 313 312 312 311 311 311 311 313 314 315 316 316 318 319 320
257 257 257 257 258 258 259 260 261 262 263 264 265 265 265 266 267 268 268 269 270 271 272 273 273 274 276 277 278 279 280 281 282 282 283 284 284 285 286 287 288 289 290 291 292 293 294 295 295 296 297 299 301 303 304 305 305 305 304 303 304 307 310 312 311 310 307 306 307 310 313 316 319 321 323 325 327 328 328 326 323 321 321 320 318 317 314 313 312 311 310 310 310 310 310 311 312 312 313 314 316 318 320
257 257 257 257 258 258 258 259 260 261 262 263 263 263 264 265 266 267 267 267 268 269 270 271 272 273 274 275 276 277 278 279 280 281 282 282 282 283 284 285 286 287 288 289 290 291 292 293 294 294 295 297 299 301 303 304 304 302 301 300 302 306 310 312 312 311 308 307 307 308 310 312 315 316 318 320 323 324 325 324 323 322 322 320 318 315 314 312 311 309 309 310 310 310 310 309 309 310 311 313 315 317 318
257 257 257 257 257 258 258 259 260 260 261 262 262 263 263 264 265 265 265 266 267 268 269 270 271 272 273 274 275 276 277 277 278 279 280 280 281 281 282 282 283 284 286 287 289 290 291 292 292 293 294 296 297 299 301 302 302 300 298 298 300 305 310 313 314 313 311 309 308 308 309 310 311 312 314 315 317 320 321 321 322 322 323 322 319 316 313 312 311 310 310 310 310 310 309 308 308 308 310 312 314 315 317
256 256 256 257 258 258 259 259 259 259 260 261 262 262 262 262 263 264 265 265 266 267 268 268 270 271 272 273 273 274 275 275 276 277 277 278 278 279 279 280 280 282 283 284 286 287 289 290 291 292 293 295 297 299 301 301 300 298 295 294 297 303 309 313 315 315 313 312 311 310 309 309 310 310 311 311 313 314 316 317 319 322 324 324 322 319 316 314 313 313 313 311 310 309 308 307 307 307 308 310 312 314 315
256 256 257 257 258 258 258 258 259 259 260 260 261 261 261 261 262 263 264 265 266 266 267 267 268 269 271 272 273 273 273 274 274 274 275 275 276 276 277 277 278 279 281 282 284 286 287 289 290 291 292 294 296 298 300 300 299 296 292 291 294 301 308 312 314 315 315 314 314 313 312 312 311 310 309 309 309 310 311 313 316 320 323 325 325 323 321 318 316 314 313 311 310 308 307 307 306 306 307 308 310 312 314
256 257 257 257 258 258 258 258 259 259 259 260 260 261 261 261 261 262 263 264 265 265 266 266 266 268 269 271 272 272 272 273 273 273 273 274 274 275 275 276 277 278 279 281 283 284 286 288 289 290 292 294 296 298 299 299 297 293 289 288 291 298 306 310 313 314 315 316 316 316 315 314 313 312 310 309 308 308 309 310 313 316 320 323 325 325 324 321 318 315 313 311 309 308 307 306 306 306 306 307 309 310 312
257 257 257 258 258 258 258 258 258 258 259 259 260 260 261 261 261 262 262 263 263 264 265 265 266 266 267 268 270 271 271 272 273 273 273 273 274 274 274 275 276 277 279 280 282 284 286 287 289 290 291 293 295 297 298 297 295 291 287 286 290 297 305 309 312 313 314 316 316 317 316 316 315 314 312 311 309 308 308 309 310 313 317 321 325 326 325 324 321 317 314 311 309 308 307 306 305 305 305 306 307 308 309
257 257 257 257 258 258 258 258 258 258 258 259 259 260 260 260 261 261 261 261 262 263 264 265 265 265 265 266 268 269 270 271 272 273 273 273 273 274 274 275 276 278 279 280 281 283 285 286 288 289 291 292 294 295 296 296 293 289 285 286 291 298 304 308 310 312 313 315 316 316 317 317 316 316 315 313 311 309 308 308 309 311 315 319 324 326 326 324 322 318 315 313 310 307 306 305 304 304 304 304 305 306 306
257 257 257 257 257 257 257 257 257 258 258 258 258 259 259 260 260 259 260 260 260 261 263 265 265 265 265 265 266 268 269 270 271 272 273 273 273 274 275 276 277 278 279 280 281 283 284 285 286 288 289 291 292 293 294 292 289 286 284 286 293 300 305 308 310 311 313 314 315 316 316 317 317 317 316 315 313 311 310 310 310 312 314 319 323 325 325 324 322 319 317 314 310 307 305 304 303 302 302 302 302 303 304
257 257 257 256 256 256 257 257 257 257 257 258 258 258 258 258 258 258 258 259 260 261 262 263 265 265 265 264 264 265 267 268 269 270 271 272 273 274 275 276 277 278 279 280 281 283 284 284 285 286 288 289 290 291 290 288 285 281 282 288 295 302 305 308 310 311 312 313 314 315 316 316 317 317 317 316 315 314 314 313 313 314 316 318 321 323 324 324 322 320 317 314 311 308 305 303 302 301 301 300 300 301 302
258 258 257 257 257 257 257 257 257 257 257 257 257 257 257 257 258 258 258 259 260 260 261 263 264 265 265 264 263 263 264 265 266 267 269 271 272 273 274 276 277 278 279 280 281 282 283 284 285 286 287 288 289 288 287 283 279 278 282 291 298 303 306 308 309 310 311 312 312 313 314 315 316 316 316 316 316 316 316 316 316 316 317 318 320 322 323 323 321 319 316 314 311 309 307 304 302 301 300 299 299 300 300
259 259 258 258 258 257 257 257 257 257 257 257 257 257 257 258 258 259 259 260 260 261 262 262 263 263 264 263 262 262 261 262 263 265 267 269 271 271 272 274 276 277 279 279 280 281 282 284 285 285 286 287 287 285 282 277 274 276 283 291 298 302 305 307 308 309 310 310 310 311 312 313 314 315 315 315 316 316 316 316 316 316 317 317 319 320 321 321 320 318 315 313 312 310 309 306 303 301 299 299 299 299 299
260 260 259 259 258 258 257 257 257 257 257 257 257 258 258 259 259 260 260 260 260 260 261 261 261 261 262 262 262 262 261 261 262 263 264 266 268 270 272 273 275 276 277 277 278 280 282 283 285 286 286 285 284 281 276 271 270 274 282 290 295 300 303 306 307 308 308 308 308 309 310 311 312 313 313 314 314 314 314 314 314 314 315 316 317 318 319 319 319 317 315 313 312 311 310 309 306 302 300 299 298 298 299
261 260 260 260 259 258 257 257 257 257 257 258 258 259 259 259 259 259 259 259 258 258 258 258 259 259 260 261 262 262 262 262 261 261 262 262 263 266 270 273 275 276 276 277 279 281 283 284 285 285 285 283 280 275 269 266 267 272 280 287 293 298 301 304 305 306 306 306 306 307 308 309 310 310 311 311 311 311 311 311 311 311 312 313 314 315 317 318 318 317 315 314 313 312 311 310 307 302 300 298 298 298 298
262 261 261 260 260 259 258 258 258 258 258 258 258 258 258 257 257 257 257 257 257 256 256 256 257 258 258 259 261 262 262 262 261 260 259 261 263 265 267 271 274 276 277 279 281 283 284 283 284 285 284 281 275 269 263 262 265 270 278 285 291 296 299 301 303 303 303 304 304 306 307 307 308 308 308 308 308 308 308 308 308 308 308 309 311 313 315 316 317 317 315 314 313 311 310 308 305 302 299 298 297 298 299
263 262 262 261 261 260 260 259 258 258 258 258 258 257 257 256 256 256 256 256 256 256 256 255 256 257 259 259 260 260 260 260 261 260 259 262 265 266 266 267 269 271 273 278 281 281 282 283 285 284 280 275 270 265 262 262 264 269 277 283 289 293 296 298 299 300 301 302 304 305 305 305 305 305 306 306 306 306 306 306 306 306 307 307 308 310 312 313 314 315 314 313 311 310 308 305 303 301 300 299 299 299 300
263 263 262 262 261 261 261 259 259 259 258 257 257 257 257 256 256 255 255 255 256 256 256 256 256 256 257 258 258 258 259 259 260 261 261 260 261 262 261 259 258 260 267 275 281 282 280 282 283 279 271 267 264 263 262 263 265 270 276 281 286 289 291 294 296 298 299 300 302 303 303 302 302 303 303 304 304 305 305 306 306 305 305 306 306 307 308 310 311 312 311 309 308 306 304 303 303 303 303 304 302 301 302
263 263 263 262 262 262 261 260 260 259 259 258 258 257 257 257 256 256 255 255 255 256 256 257 256 255 255 256 256 257 258 259 260 261 261 258 255 253 252 253 256 260 265 268 275 281 281 281 277 270 265 260 258 259 261 263 266 270 275 279 283 287 289 291 294 296 296 297 298 299 299 299 299 300 301 301 302 303 303 304 304 303 303 303 304 304 306 307 309 309 308 306 305 303 303 303 304 306 307 307 305 304 302
263 263 263 263 262 262 261 261 260 260 260 259 258 257 257 257 257 256 256 256 256 256 256 257 256 255 254 255 256 258 258 259 259 259 259 258 256 252 250 252 255 258 261 260 256 258 268 267 262 258 259 258 257 258 259 262 266 270 274 278 281 284 286 288 289 290 291 293 295 295 294 295 296 297 297 297 298 299 300 300 301 301 301 301 301 302 303 305 306 306 305 305 304 304 304 305 307 308 309 309 307 303 300
263 263 263 262 262 261 261 261 260 260 260 259 258 257 257 257 257 257 257 256 256 256 256 256 256 256 256 255 256 258 258 257 258 258 258 258 258 257 254 250 244 242 250 251 252 254 256 253 252 254 256 256 257 259 261 265 267 269 272 274 275 277 278 280 281 283 286 289 290 290 291 291 292 291 292 293 293 294 295 296 297 297 298 298 299 300 301 303 304 305 305 304 304 305 306 307 308 309 310 310 307 303 300
263 263 262 262 261 261 260 260 259 259 259 259 258 258 258 257 257 256 256 255 255 255 255 255 256 257 258 256 256 256 256 255 255 256 256 257 257 258 256 252 249 247 245 250 255 257 253 247 245 249 257 255 253 255 262 265 266 266 266 266 267 268 270 273 276 280 284 286 288 289 289 289 288 288 288 289 289 290 292 293 294 295 296 296 297 298 300 302 304 304 304 304 304 305 306 307 308 309 309 309 307 304 301
263 262 262 262 261 260 260 259 259 259 259 259 258 258 257 257 256 255 255 254 254 255 255 255 255 256 256 256 255 253 253 253 252 253 255 255 255 255 255 255 255 254 254 255 255 254 253 251 247 246 255 257 256 256 258 260 261 261 260 260 262 264 267 271 275 279 283 286 288 290 290 289 287 287 287 287 287 288 290 291 292 294 294 295 296 298 299 302 303 304 304 303 303 303 304 305 306 306 306 307 306 304 300
263 263 263 262 261 260 259 259 259 258 258 259 258 257 256 256 256 256 256 255 255 255 255 254 254 255 255 255 253 251 250 252 252 252 252 252 253 253 254 253 252 250 249 249 250 251 251 250 250 251 253 258 262 262 261 259 258 259 260 262 264 267 270 273 276 280 283 287 290 292 292 291 289 288 286 286 287 288 289 290 292 293 294 295 296 297 299 301 303 304 304 303 302 302 302 303 304 305 305 306 304 301 297
264 263 263 262 261 260 259 258 258 258 258 258 257 257 256 256 257 257 256 256 256 255 254 254 254 254 254 253 252 250 250 251 253 252 250 247 249 252 252 251 251 250 249 249 249 250 251 251 253 254 253 255 261 266 266 262 261 262 264 266 269 272 274 275 277 280 284 288 292 293 293 293 292 290 288 287 287 287 288 290 291 293 294 295 296 297 299 301 303 305 306 306 305 305 305 305 305 306 306 305 302 297 295
265 264 263 263 262 261 259 258 257 257 257 257 257 257 257 257 257 257 256 255 255 254 254 253 253 252 252 251 251 251 251 252 252 251 250 248 249 252 253 251 250 250 250 250 250 250 251 252 253 253 253 255 257 261 265 265 266 266 267 270 273 274 275 275 276 280 284 289 292 293 293 293 292 291 289 288 287 287 287 289 292 294 296 296 297 298 300 302 305 307 308 309 309 309 308 307 307 306 306 305 301 296 294